Regional Weather Roundup
Issued by NWS

Home | Current Version | Previous Version | Text Only | Print | Product List | Glossary Off
Versions: 1 2 3 4 5 6 7 8 9 10 11 12 13 14 15 16 17 18 19 20 21 22 23 24 25 26 27 28 29 30 31 32 33 34 35 36 37 38 39 40 41 42 43 44 45 46 47 48 49 50

000
ASUS43 KLOT 201458
RWRIL

ILLINOIS REGIONAL WEATHER ROUNDUP
NATIONAL WEATHER SERVICE CHICAGO/ROMEOVILLE IL
1000 AM CDT SUN APR 20 2014

NOTE: "FAIR" INDICATES FEW OR NO CLOUDS BELOW 12,000 FEET WITH NO
SIGNIFICANT WEATHER AND/OR OBSTRUCTIONS TO VISIBILITY.

* THESE STATIONS ARE NOT UNDER NWS QUALITY CONTROL. THEY ALSO MAY NOT
  REPORT WEATHER SUCH AS PRECIPITATION OR FOG.

ILZ001-002-007-009-015-016-024-201600-
NORTHWEST ILLINOIS

CITY           SKY/WX    TMP DP  RH WIND       PRES   REMARKS
MOLINE         MOSUNNY   70  42  36 SW10      30.12F
$$

ILZ003-004-008-010-011-017-018-201600-
NORTH CENTRAL ILLINOIS

CITY           SKY/WX    TMP DP  RH WIND       PRES   REMARKS
ROCKFORD       NOT AVBL
$$

ILZ005-006-012>014-019>023-201600-
NORTHEAST ILLINOIS

CITY           SKY/WX    TMP DP  RH WIND       PRES   REMARKS
CHICAGO-OHARE  PTSUNNY   63  34  33 S10       30.20F
CHICAGO-MIDWAY PTSUNNY   62  35  36 S12       30.21F
AURORA         MOSUNNY   61  38  42 S14       30.20F
WAUKEGAN       PTSUNNY   59  33  37 S8        30.19F
DUPAGE AIRPORT MOSUNNY   62  36  37 S14       30.20F
WHEELING       MOSUNNY   63  36  36 S10       30.21F
NORTHERLY ISL    N/A     60  31  33 SE7         N/A
$$

LMZ740>746-201600-
SOUTHERN LAKE MICHIGAN

STATION/POSITION SKY/WX   TEMP    WIND        PRES    VSBY  WAVE
                          AIR SEA DIR/SP/G                  HT/PER
                          (F)     (DEG/KT/KT) (MB)    (MI)  (FT/S)
WAUKEGAN HARBOR            48     150/ 11/ 13 1023.7F
HARRISON CRIB              49     160/ 14/ 16   N/A
BURNHAM HARBOR             58     200/  7/ 12   N/A
CALUMET HARBOR             57     180/ 11/ 14 1023.9F
MICHIGAN CITY              53     140/ 10/ 13   N/A
$$

ILZ025>027-034>036-040-047-049-050-058-095>099-201600-
WEST-CENTRAL ILLINOIS

CITY           SKY/WX    TMP DP  RH WIND       PRES   REMARKS
$$

ILZ028>032-037-038-041>044-048-051>054-059>061-201600-
CENTRAL ILLINOIS

CITY           SKY/WX    TMP DP  RH WIND       PRES   REMARKS
PEORIA         NOT AVBL
SPRINGFIELD    MOSUNNY   69  40  34 S10       30.20S
TAYLORVILLE    NOT AVBL
$$

ILZ033-039-045-046-055>057-062-063-201600-
EAST-CENTRAL ILLINOIS

CITY           SKY/WX    TMP DP  RH WIND       PRES   REMARKS
CHAMPAIGN      MOSUNNY   69  39  33 S12       30.22F
$$

ILZ079-100>102-201600-
SOUTHWEST ILLINOIS

CITY           SKY/WX    TMP DP  RH WIND       PRES   REMARKS
ALTON          SUNNY     66  37  34 S9        30.21S
$$

ILZ064>066-069>071-074>076-080>082-084>086-088>090-092>094-201600-
SOUTH-CENTRAL ILLINOIS

CITY           SKY/WX    TMP DP  RH WIND       PRES   REMARKS
CARBONDALE     MOSUNNY   68  42  38 S8        30.22R
$$

ILZ067-068-072-073-078-083-087-091-201600-
SOUTHEAST ILLINOIS

CITY           SKY/WX    TMP DP  RH WIND       PRES   REMARKS
$$

ABBREVIATIONS USED IN REMARKS
   TC - TEMPERATURE IN CELSIUS
  WCI - WIND CHILL INDEX
   HX - HEAT INDEX
  VSB - VISIBILITY
$$




USA.gov is the U.S. government's official web portal to all federal, state and local government web resources and services.